Weather History for KARA - May, 2013

Change the Weather History Date:

Wednesday, May 29, 2013

  Actual Average Record
Temperature  
Mean Temperature 81 °F 79 °F  
Max Temperature 90 °F 88 °F 94 °F (1954)
Min Temperature 71 °F 70 °F 58 °F (1961)
Degree Days  
Heating Degree Days 0 0  
Month to date heating degree days 21 0  
Since 1 July heating degree days 1150 1408  
Cooling Degree Days 16 14  
Month to date cooling degree days 284 322  
Year to date cooling degree days 528 542  
Growing Degree Days 30 (Base 50)    
Moisture  
Dew Point 71 °F    
Average Humidity 71    
Maximum Humidity 87    
Minimum Humidity 55    
Precipitation  
Precipitation 0.00 in 0.24 in 1.90 in (2007)
Month to date precipitation 9.10 4.50  
Year to date precipitation 35.35 21.75  
Sea Level Pressure  
Sea Level Pressure 29.95 in    
Wind  
Wind Speed 11 mph (SE)    
Max Wind Speed 20 mph    
Max Gust Speed 28 mph    
Visibility 10 miles    
Events      
T = Trace of Precipitation, MM = Missing Value Source: NWS Daily Summary

Daily Weather History Graph

Daily Weather History Graph

Search for Another Location

Airport or City:

Trip Planner

Search our weather history database for the weather conditions in past years. The results will help you decide how hot, cold, wet, or windy it might be!

Date:

Astronomy

May. 29, 2013 Rise Set
Actual Time 6:07 AM CDT 8:02 PM CDT
Civil Twilight 5:40 AM CDT 8:29 PM CDT
Nautical Twilight 5:08 AM CDT 9:02 PM CDT
Astronomical Twilight 4:33 AM CDT 9:36 PM CDT
Moon No Moon Rise 10:55 AM CDT
Length of Visible Light 14h 49m
Length of Day
13h 55m
Waning Gibbous, 73% of the Moon is Illuminated
May 29
Waning Gibbous
May 31
Last Quarter
Jun 8
New
Jun 16
First Quarter
Jun 23
Full

Hourly Weather History & Observations

Time (CDT) Temp. Heat Index Dew Point Humidity Pressure Visibility Wind Dir Wind Speed Gust Speed Precip Events Conditions
12:53 AM 71.1 °F - 66.0 °F 84% 29.99 in 10.0 mi SE 5.8 mph - N/A   Clear
1:53 AM 72.0 °F - 66.9 °F 84% 29.98 in 10.0 mi ESE 4.6 mph - N/A   Clear
2:53 AM 72.0 °F - 66.9 °F 84% 29.96 in 10.0 mi SE 3.5 mph - N/A   Clear
3:53 AM 73.0 °F - 68.0 °F 84% 29.95 in 10.0 mi East 3.5 mph - N/A   Clear
4:53 AM 73.0 °F - 68.0 °F 84% 29.95 in 10.0 mi ENE 4.6 mph - N/A   Partly Cloudy
5:53 AM 73.0 °F - 69.1 °F 87% 29.96 in 9.0 mi ENE 3.5 mph - N/A   Clear
6:42 AM 73.4 °F - 69.8 °F 88% 29.96 in 7.0 mi Calm Calm - N/A   Scattered Clouds
6:53 AM 75.0 °F - 71.1 °F 87% 29.96 in 8.0 mi East 4.6 mph - N/A   Scattered Clouds
7:09 AM 75.2 °F - 71.6 °F 89% 29.96 in 8.0 mi East 5.8 mph - N/A   Mostly Cloudy
7:17 AM 75.2 °F - 71.6 °F 89% 29.96 in 8.0 mi East 6.9 mph - N/A   Mostly Cloudy
7:24 AM 75.2 °F - 71.6 °F 89% 29.96 in 8.0 mi East 6.9 mph - N/A   Overcast
7:35 AM 78.8 °F - 73.4 °F 83% 29.96 in 9.0 mi East 8.1 mph - N/A   Mostly Cloudy
7:53 AM 79.0 °F - 73.0 °F 82% 29.96 in 10.0 mi East 9.2 mph - N/A   Mostly Cloudy
8:53 AM 82.9 °F 88.8 °F 73.0 °F 72% 29.96 in 10.0 mi SE 12.7 mph - N/A   Partly Cloudy
9:53 AM 84.9 °F 90.1 °F 71.1 °F 63% 29.97 in 10.0 mi SSE 13.8 mph - N/A   Scattered Clouds
10:53 AM 88.0 °F 93.8 °F 71.1 °F 57% 29.98 in 10.0 mi South 12.7 mph 19.6 mph N/A   Partly Cloudy
11:53 AM 88.0 °F 93.8 °F 71.1 °F 57% 29.97 in 10.0 mi South 15.0 mph - N/A   Partly Cloudy
12:53 PM 89.1 °F 96.0 °F 72.0 °F 57% 29.98 in 10.0 mi South 16.1 mph 21.9 mph N/A   Scattered Clouds
1:53 PM 89.1 °F 95.0 °F 71.1 °F 55% 29.96 in 10.0 mi South 18.4 mph 24.2 mph N/A   Partly Cloudy
2:53 PM 89.1 °F 95.0 °F 71.1 °F 55% 29.95 in 10.0 mi South 16.1 mph 24.2 mph N/A   Clear
3:53 PM 89.1 °F 96.0 °F 72.0 °F 57% 29.93 in 10.0 mi South 15.0 mph - N/A   Clear
4:53 PM 88.0 °F 92.9 °F 70.0 °F 55% 29.91 in 10.0 mi SSE 18.4 mph - N/A   Clear
5:53 PM 87.1 °F 92.0 °F 70.0 °F 57% 29.90 in 10.0 mi SSE 12.7 mph - N/A   Clear
6:53 PM 84.0 °F 89.0 °F 71.1 °F 65% 29.91 in 10.0 mi South 18.4 mph 23.0 mph N/A   Clear
7:53 PM 82.0 °F 87.4 °F 73.0 °F 74% 29.91 in 10.0 mi SSE 13.8 mph 19.6 mph N/A   Clear
8:53 PM 80.1 °F 83.8 °F 72.0 °F 76% 29.92 in 10.0 mi SSE 9.2 mph - N/A   Clear
9:53 PM 79.0 °F - 73.0 °F 82% 29.92 in 10.0 mi SE 10.4 mph - N/A   Clear
10:53 PM 78.1 °F - 72.0 °F 81% 29.95 in 10.0 mi SE 6.9 mph - N/A   Clear
11:53 PM 77.0 °F - 72.0 °F 84% 29.97 in 10.0 mi SE 4.6 mph - N/A   Clear